Location: Doverdale
(52.2833°N, 2.2000°W)
Time: 01:46:28
(UTC+00:00)

Cosmos 1980 Rocket - Pass Details

Date: 04 March 2021
Orbit: 828 x 851 km, 71.0° (Epoch: 15 April)

Event Time Altitude Azimuth Distance (km) Brightness Sun altitude
Rises 20:24:09 0° 276° (W) 3,410 6.6 -23.4°
Reaches altitude 10° 20:27:35 10° 297° (WNW) 2,481 5.7 -23.9°
Maximum altitude 20:31:07 16° 336° (NNW) 2,062 4.7 -24.4°
Drops below altitude 10° 20:34:39 10° 14° (NNE) 2,490 4.7 -24.9°
Sets 20:38:08 0° 35° (NE) 3,429 5.3 -25.3°
